Home   Weather   Savannah   Past weeks

Flag for USA Past Weather in Savannah, Georgia, USA — Yesterday and Last 2 Weeks

Now
56 °F

Sunny.


Feels Like: 54 °F
Forecast: 51 / 63 °F
Wind: 9 mph from Northwest

Location: Hunter U. S. Army Airfield

Current Time: Dec 8, 2016 at 11:08:47 am

Latest Report: Dec 8, 2016 at 9:58 am


Visibility: 10 mi

Pressure: 30.14 "Hg

Humidity: 81%

Dew Point: 50 °F

Location of SavannahLocation

Past Weather in Savannah — Graph

°F

Savannah Temperature Yesterday

Maximum temperature yesterday: 65 °F (at 2:58 pm)
Minimum temperature yesterday: 51 °F (at 5:58 am)
Average temperature yesterday: 57 °F

High & Low Weather Summary for the Past Weeks

 TemperatureHumidityPressure
High80 °F (Nov 25, 1:58 pm)100% (Nov 24, 1:58 am)30.28 "Hg (Nov 24, 1:58 am)
Low39 °F (Dec 2, 4:58 am)41% (Nov 27, 3:58 pm)29.68 "Hg (Dec 6, 1:03 pm)
Average61 °F86%30.06 "Hg
* Reported Nov 23 9:58 am — Dec 8 9:58 am, Savannah, Weather by CustomWeather, © 2016

Note: Actual official high and low records may vary slightly from our data, if they occured in-between our weather recording intervals... More about our weather records

Advertising

Savannah Weather History for the Previous 24 Hours

Scroll right to see more
 ConditionsComfort  
Time TempWeatherWind HumidityBarometerVisibility
9:58 am
Thu, Dec 8
56 °FSunny.9 mph81%30.14 "Hg10 mi
8:58 am53 °FSunny.12 mph94%30.14 "Hg10 mi
7:58 am49 °FSunny.8 mph100%30.13 "Hg10 mi
6:58 am47 °FClear.8 mph100%30.10 "Hg10 mi
5:58 am49 °FClear.6 mph100%30.09 "Hg10 mi
4:58 am50 °FClear.5 mph100%30.07 "Hg10 mi
3:58 am55 °FOvercast.8 mph96%30.07 "Hg10 mi
2:58 am56 °FOvercast.8 mph97%30.08 "Hg10 mi
1:58 am56 °FOvercast.8 mph100%30.07 "Hg10 mi
12:58 am57 °FOvercast.7 mph100%30.07 "Hg10 mi
11:58 pm
Wed, Dec 7
56 °FOvercast.3 mph100%30.08 "Hg10 mi
10:58 pm56 °FOvercast.3 mph100%30.08 "Hg10 mi
9:58 pm55 °FPassing clouds.3 mph100%30.08 "Hg8 mi
8:58 pm56 °FPassing clouds.3 mph100%30.07 "Hg10 mi
7:58 pm55 °FPassing clouds.No wind100%30.07 "Hg10 mi
6:58 pm57 °FOvercast.6 mph100%30.06 "Hg10 mi
5:58 pm57 °FPassing clouds.6 mph100%30.04 "Hg10 mi
4:58 pm59 °FPartly sunny.3 mph100%30.08 "Hg10 mi
4:48 pm61 °FBroken clouds.6 mph100%30.02 "Hg10 mi
3:58 pm62 °FMostly cloudy.7 mph95%30.02 "Hg10 mi
2:58 pm65 °FOvercast.No wind84%30.01 "Hg10 mi
1:58 pm64 °FOvercast.5 mph84%30.02 "Hg10 mi
12:58 pm63 °FOvercast.No wind88%30.02 "Hg10 mi
11:58 am62 °FOvercast.3 mph92%30.05 "Hg10 mi
Weather by CustomWeather, © 2016

See weather overviewHow to use our weather pages